DELTA 1 DEB, 7846

Orbit data source: Space-Track

DELTA 1 DEB, 7846 is space debris in SSO originally from a launch on Sun, 23 Jul 1972 UTC launched from the Air Force Western Test Range (AFWTR). Debris objects in space refer to the collection of defunct objects orbiting the Earth. Examples of debris include non-operational satellites, rocket bodies, and fragments generated from explosions, collisions, or faulty payload assembly.

Loading next visibility...
Identifier
7846, 1972-058S
Orbit
SSO
Country
Flag of USUS
Related business
Manufacturer
Unknown
Mission
Spacecraft
Bus & Motor
Unknown
Mass
Unknown
Launch date (UTC)
1972-07-23 (53 years ago)
Launch vehicle
Unknown
Launch site
Air Force Western Test Range (AFWTR)
Object type
Payload
Rocket body
Debris
Shape & HBR
Unknown shape, 0.5 m
Radar Cross Section
Medium (>0.1 m² and <1 m²)

Expand to show TLE details & history
Last TLE update: 19 hours ago

TLE from 19 hours ago
0 DELTA 1 DEB
1 07846U 72058S   25293.76251033  .00001162  00000-0  26442-3 0  9996
2 07846  98.6137   3.6141 0146992 241.3850 117.2492 14.51592124633350
Epoch: 2025-10-20T18:18Z
TLE epoch observation values (Epoch: 2025-10-20T18:18:00.892Z)
Latitude
0.00002°
Longitude
59.65021°
Altitude
772.399 km
Speed
7.442 km/s
True Right ascension
00h 14m 27s
True Declination
0° 00' 00"
Sunlit
Object was in full shadow at epoch
Visualization orbit readout
Latitude
Unknown
Longitude
Unknown
Altitude
Unknown
Speed
Unknown
Apparent Right ascension
Unknown
Apparent Declination
Unknown
Sunlit
N/A
Visualization observer readout
Local Sidereal Time
08:06:42
Azimuth
Unknown
Elevation
Unknown
Doppler factor
Unknown
Orbital elements
Apogee altitude
821.865 km
Perigee altitude
613.263 km
Semi-major axis
7,095.701 km
Eccentricity
0.0147
Inclination
98.6137°
RAAN
3.6141°
Arg. of periapsis
241.385°
True anomaly
118.73401°
Mean anomaly
117.2492°
Eccentric anomaly
117.99287°
Mean motion
3.6312 °/min
Orbital period
99.14 mins
BSTAR
0.00026442
Loading maneuver chart data...
Computing Atmospheric mass density...

Documentation

Showing up to 5 results
|